Location: Jugra
(2.8413°N, 101.4264°E)
Time: 22:32:53
(UTC+00:00)

Daily predictions for brighter satellites

Satellite Brightness Start Highest point End
(mag) Time Altitude Azimuth Time Altitude Azimuth Time Altitude Azimuth
CZ-4B R/B 3.7 12:01:34 10° SSE 12:05:22 60° ENE 12:09:01 10° N
SPOT 1/Viking Rocket 4.3 12:01:29 10° SE 12:05:56 29° ENE 12:10:21 10° NNE
Cosmos 1943 3.2 12:01:01 10° S 12:06:42 78° ESE 12:12:21 10° NNE
Cosmos 1825 3.5 12:04:06 10° SSW 12:06:51 33° W 12:09:35 10° NNW
Ariane 3 Deb 2.2 12:03:33 10° WNW 12:07:03 66° N 12:09:46 15° E
Cosmos 2278 Rocket 2.2 12:01:53 10° N 12:07:28 64° ENE 12:13:02 10° SSE
SL-08 R/B 3.3 12:04:23 10° NNE 12:09:10 71° ESE 12:13:53 10° S
YAOGAN 1 2.6 12:05:06 10° SSE 12:09:17 56° ENE 12:13:26 10° N
Landsat 7 4.0 12:05:35 10° S 12:10:16 75° W 12:14:55 10° NNW
HETE-2 4.4 12:10:41 10° W 12:14:34 77° S 12:17:14 19° E
ARIANE 3 DEB 4.2 12:13:58 10° SW 12:15:10 13° S 12:16:19 10° SSE
Ariane V96 H10-3 3.5 12:09:24 10° WSW 12:18:40 64° S 12:20:34 21° E
OAO 3 Rocket 3.7 12:14:17 10° WNW 12:18:51 58° SW 12:23:28 10° SE
RESURS DK-1 2.9 12:15:24 10° N 12:19:02 33° ENE 12:22:40 10° SE
USA 267 3.3 12:16:09 10° SE 12:22:43 88° SW 12:29:17 10° NW
Resurs 1-3 3.7 12:20:12 10° SSE 12:24:20 47° ENE 12:28:28 10° N
DELTA-4 R/B 3.7 12:08:20 10° WNW 12:24:34 84° SSW 12:27:30 18° ESE
ARIANE 6 FM1 Upper Stage 4.2 12:20:45 10° NW 12:24:52 41° WSW 12:29:01 10° S
Cosmos 1782 Rocket 4.2 12:26:12 25° NE 12:27:30 31° E 12:31:20 10° SSE
ACS3 Solar Sail 2.1 12:21:36 10° S 12:27:51 74° WSW 12:34:12 10° NNW
Tiangong 0.7 12:25:31 10° W 12:28:01 21° SW 12:30:31 10° S
Helios 1A 3.2 12:27:06 25° NE 12:29:02 45° ESE 12:32:53 10° S
Cosmos 2084 Rocket 3.4 12:26:30 10° NNW 12:30:27 74° WSW 12:34:25 10° SSE
Cosmos 1328 3.9 12:27:37 10° SSE 12:31:13 45° E 12:32:13 35° NE
ARIANE 5 DEB (SYLDA) 2.3 12:25:57 10° W 12:32:18 74° N 12:33:21 39° ENE
Cosmos 1898 Rocket 3.5 12:37:30 10° NNW 12:42:48 87° WSW 12:48:06 10° S
CBERS 1 LM4 rocket 4.5 12:38:41 10° SSE 12:43:20 50° ENE 12:47:57 11° N
Spelda 30 2.7 12:42:17 10° W 12:44:36 47° S 12:44:47 46° SSE
Aureole 1 Rocket 4.0 12:39:24 10° NNW 12:45:51 70° W 12:50:57 10° S
SL-08 ROCKET BODY 4.3 12:40:20 10° S 12:46:15 64° E 12:50:14 22° NNE
Cosmos 1603 3.7 12:42:01 10° SSW 12:47:37 80° WNW 12:51:31 21° N
Resurs 01 Rocket 3.9 12:44:58 10° SE 12:45:15 11° SE 12:45:15 11° SE
COSMOS 2455 4.4 12:51:29 10° SSE 12:54:21 19° SE 12:54:21 19° SE
NOSS 3-2 (A) 3.4 12:51:32 10° S 12:55:26 37° SE 12:55:26 37° SE
SJ-6B 2.9 12:52:45 10° S 12:55:30 53° S 12:55:30 53° S
BREEZE M DEB (TANK) 2.8 12:55:34 10° SW 12:57:06 39° W 12:57:06 39° W
Milstar 3 Cent rocket 3.1 12:54:57 10° W 13:01:09 35° NNW 13:02:38 29° N
Cosmos 836 Rocket 4.5 12:57:31 10° SSW 13:02:41 78° WNW 13:04:27 42° N
Lacrosse 5 3.7 12:58:37 10° WNW 13:03:05 31° WSW 13:07:33 10° S
ARIANE 5 DEB (SYLDA) 3.9 12:51:39 10° W 13:04:11 67° N 13:05:21 54° NE
Cosmos 1378 Rocket 3.5 13:02:20 10° S 13:06:36 75° W 13:06:48 73° WNW
Cosmos 1300 Rocket 3.6 13:06:00 59° NNW 13:06:43 74° W 13:11:03 10° S
ARIANE 5 R/B 2.9 13:04:26 10° W 13:06:04 22° W 13:06:04 22° W
Cosmos 2208 Rocket 4.5 13:07:06 10° SSW 13:12:15 57° WNW 13:14:05 37° NNW
USA 32 4.5 13:07:09 10° SSW 13:12:17 59° W 13:15:06 26° NNW
ARIANE 5 R/B 2.7 13:13:49 10° W 13:16:53 71° S 13:17:42 60° ESE
USA 281 3.5 13:24:56 48° SE 13:24:56 48° SE 13:30:20 10° S
Iridium 4 Rocket 3.9 13:20:25 10° S 13:24:13 51° SSW 13:24:13 51° SSW
ARIANE 44LP R/B 3.8 13:14:50 10° W 13:27:50 75° W 13:27:50 75° W
CENTAUR R/B 3.4 13:27:00 10° WSW 13:30:57 28° WNW 13:31:36 27° NW
Ariane H10 3.9 13:28:25 10° WSW 13:35:28 28° SSW 13:35:28 28° SSW
ARIANE 5 R/B 3.1 13:26:43 10° W 13:37:20 57° WSW 13:37:20 57° WSW
SEDSat Delta rocket 4.4 13:42:37 10° WSW 13:47:17 54° WSW 13:47:17 54° WSW
Ariane H10-3 4.4 13:47:12 10° WSW 14:06:30 60° SW 14:06:30 60° SW
Ariane H10+ 4.4 14:40:33 10° WSW 14:50:58 38° SW 14:50:58 38° SW
Atlas Centaur 2 3.4 20:40:32 56° ESE 20:40:32 56° ESE 20:46:50 10° ESE
Cosmos 2237 Rocket 4.5 20:47:10 15° ENE 20:48:31 17° ENE 20:52:00 10° ESE
SL-16 R/B 3.8 20:43:15 10° SSE 20:46:23 32° SSE 20:46:23 32° SSE
ATLAS 5 CENTAUR R/B 3.9 21:05:51 28° NE 21:07:55 34° ENE 21:14:14 10° SE
BLOCK-DM UPPERSTAGE 4.3 21:10:51 49° ESE 21:10:51 49° ESE 21:16:08 10° E
CZ-4C R/B 3.5 21:08:41 44° N 21:11:49 67° ENE 21:20:47 10° SSE
Cosmos 371 Rocket 4.3 21:21:29 10° S 21:26:04 45° ESE 21:30:39 10° NNE
Ariane H10 3.3 21:32:36 33° S 21:32:53 34° SSE 21:39:20 10° ESE
Cosmos 1816 Rocket 4.4 21:33:09 56° NNW 21:34:37 80° W 21:40:59 10° S
Cosmos 1980 3.9 21:36:16 40° N 21:38:15 67° ENE 21:43:52 10° SSE
Cosmos 1844 Rocket 3.6 21:35:12 10° S 21:40:36 47° ESE 21:45:58 10° NNE
Meteor 1-23 Rocket 4.5 21:40:03 21° N 21:43:55 68° E 21:49:38 10° SSE
IRAS Rocket 4.1 21:39:21 10° NNE 21:44:51 84° WNW 21:50:21 10° SSW
Cosmos 2227 4.1 21:39:46 10° SSW 21:45:24 88° WNW 21:51:04 10° NNE
Cosmos 1666 Rocket 3.4 21:41:27 10° S 21:45:49 86° E 21:46:15 72° NNE
ARGOS 3.5 21:51:50 43° WSW 21:51:50 43° WSW 21:56:04 10° SSW
SL-12 R/B(2) 3.9 21:44:27 10° SW 21:51:31 55° WNW 21:59:04 10° N
NOSS 0 Rocket 4.1 21:52:11 45° WNW 21:53:17 51° WSW 21:59:17 10° S
Yuri Rocket 4.5 21:53:25 23° SSW 21:53:36 23° SSW 21:57:15 10° SSE
Meteor 1-13 Rocket 4.5 21:55:24 44° W 21:55:37 44° W 22:00:55 10° SSW
COSMOS 2428 4.0 21:57:00 22° SW 21:57:00 22° SW 22:00:12 10° SSW
Ariane H10+ 0.7 22:00:41 81° S 22:00:41 81° S 22:05:23 10° E
Cosmos 1300 4.1 21:57:52 10° SSE 22:00:55 33° E 22:03:57 10° NNE
Cosmos 1470 Rocket 4.1 21:56:43 10° S 22:01:05 58° E 22:05:26 10° NNE
ARIANE 44P R/B 2.1 22:04:10 58° W 22:04:42 88° S 22:10:54 10° E
Ariane 42P Rocket 3.7 22:06:34 14° SE 22:06:34 14° SE 22:06:59 10° ESE
SL-4 R/B 1.4 22:08:55 60° NNW 22:08:55 60° NNW 22:11:53 10° NNE
ADEOS Rocket 4.0 22:02:12 10° NNE 22:08:53 61° ESE 22:16:14 10° S
Cosmos 1484 Rocket 4.4 22:11:41 18° SW 22:11:41 18° SW 22:12:47 10° SW
GMS 1 Rocket B 4.4 22:08:32 42° NW 22:09:53 82° NNE 22:14:51 10° ESE
Cosmos 1891 Rocket 4.4 22:04:44 10° SSW 22:10:37 57° W 22:16:31 10° N
ASTEX 1 4.5 22:06:58 10° NNE 22:11:41 46° E 22:16:25 10° S
JB-3 4.4 22:10:50 10° S 22:14:38 50° W 22:16:03 33° NW
SL-08 RB Rocket 4.4 22:15:13 30° W 22:15:13 30° W 22:18:42 10° SW
Meteor 2-10 Rocket 4.0 22:17:07 10° S 22:22:05 62° E 22:27:09 10° NNE
ARIANE 5 R/B 3.3 22:18:01 10° NNE 22:22:52 53° ESE 22:27:43 10° S
Cosmos 304 Rocket 4.3 22:18:39 10° SW 22:22:57 34° WNW 22:27:14 10° NNW
CZ-3 R/B 3.4 22:02:06 10° WSW 22:23:48 39° NW 22:30:50 10° NNE
GPS 2-15 Rocket1 4.4 22:23:10 20° NW 22:24:08 22° NNW 22:27:40 10° NE
Cosmos 1844 3.6 22:21:10 10° SSW 22:26:41 62° WNW 22:32:16 10° N
Atlas Centaur 2 4.0 22:22:37 16° W 22:27:56 32° SSW 22:35:04 10° SSE
Ariane H10+ 3.3 22:25:14 19° W 22:28:27 86° S 22:43:27 10° E
Cosmos 1932 4.5 22:22:31 10° NNW 22:28:56 82° WSW 22:35:24 10° SSE
USA 290 2.3 22:27:18 10° S 22:30:26 74° ESE 22:33:34 10° NNE
ARIANE 5 R/B 4.0 22:28:34 14° WSW 22:31:29 54° S 22:47:10 10° E
Cosmos 2237 Rocket 2.9 22:29:03 19° NW 22:32:17 33° WSW 22:37:17 10° SSW
USA 81 4.4 22:29:02 10° NNW 22:33:58 42° W 22:38:56 10° SSW
Ariane H10+ 4.1 22:12:25 10° W 22:39:42 77° N 22:43:57 10° ENE
Stardust Del rocket 3.2 22:38:23 17° NW 22:40:50 45° NNE 22:43:17 10° E
USA 276 1.7 22:40:29 11° WSW 22:42:34 37° NW 22:44:35 10° NNE
DELTA 2 R/B (1) 4.4 22:37:26 10° NNW 22:42:45 45° NE 22:48:03 10° ESE
Cosmos 405 Rocket 3.0 22:44:33 10° SSW 22:47:39 34° W 22:50:46 10° NNW
Maqsat-B 4.5 22:43:25 10° WSW 22:47:42 24° S 22:50:39 10° SE
Cosmos 1486 Rocket 4.1 22:43:33 10° S 22:48:45 82° ESE 22:53:58 10° NNE
ATLAS 5 CENTAUR R/B 3.7 22:46:10 12° WNW 22:51:14 28° WSW 22:57:14 10° S
Cosmos 2228 Rocket 3.1 22:47:50 10° NNW 22:52:15 64° W 22:56:38 10° S
COSMO-SKYMED 1 2.7 22:50:53 10° SSE 22:55:13 81° E 22:59:32 10° N
Cosmos 1758 3.1 22:52:46 10° SSW 22:56:27 60° W 23:00:07 10° N
IRS-P3 4.1 22:54:48 10° N 23:00:07 78° WNW 23:05:27 10° SSW
Okean 1-7 3.1 22:58:28 10° N 23:02:37 76° E 23:06:45 10° S
IRS-1C 4.4 22:58:33 10° N 23:03:37 47° WNW 23:08:43 10° SSW
Cosmos 841 Rocket 4.0 23:02:19 10° NW 23:07:02 37° WSW 23:11:44 10° S
